Location: Bukit Lungun
(2.6833°N, 113.9667°E)
Time: 11:17:47
(UTC+00:00)

SWAS - Pass Details

Date: 02 March 2021
Orbit: 578 x 593 km, 69.9° (Epoch: 20 April)

Event Time Altitude Azimuth Distance (km) Brightness Sun altitude
Rises 12:00:08 0° 198° (SSW) 2,787 8.2 -21.1°
Reaches altitude 10° 12:02:21 10° 199° (SSW) 1,888 7.3 -21.7°
Maximum altitude 12:06:35 80° 286° (WNW) 590 4.4 -22.7°
Enters shadow 12:07:34 51° 4° (N) 725 4.7 -23.0°
